Location: Brantley
(31.5822°N, 86.2569°W)
Time: 12:59:47
(UTC+00:00)

Vanguard 3 - Pass Details

Date: 24 February 2026
Orbit: 507 x 3205 km, 33.4° (Epoch: 17 March)

Event Time Altitude Azimuth Distance (km) Brightness Sun altitude
Rises 23:54:29 0° 282° (WNW) 5,119 12.8 -4.2°
Reaches altitude 10° 23:58:36 10° 282° (WNW) 3,669 11.9 -5.0°
Maximum altitude 00:07:13 85° 195° (SSW) 960 7.6 -6.9°
Drops below altitude 10° 00:12:10 10° 107° (ESE) 2,169 8.8 -7.9°
Enters shadow 00:12:36 - 107° (ESE) 2,335 8.9 -8.0°
Sets 00:14:04 0° 106° (ESE) 2,916 - -8.3°
